Location: Alessandria
(44.9000°N, 8.6170°E)
Time: 01:25:35
(UTC+02:00)

ISS - Pass Details

Date: 18 May 2021
Orbit: 417 x 422 km, 51.6° (Epoch: 14 June)

Event Time Altitude Azimuth Distance (km) Brightness Sun altitude
Rises 01:16:58 0° 296° (WNW) 2,370 0.4 -25.5°
Reaches altitude 10° 01:19:15 10° 309° (NW) 1,506 -0.5 -25.5°
Maximum altitude 01:22:15 28° 11° (N) 820 -1.7 -25.5°
Enters shadow 01:22:51 26° 31° (NNE) 860 -1.7 -25.5°
